Temp
-6 -6 -6 -6 -6 -6 -6 -6 -6 -6 -6 -6 -6 -6 -7 -7 -7 -6 -6 -6 -7 -6 -6 -6 -6 -7 -7 -7 -6 -6 -6 -6 -6 -7 -7 -6 -6 -6 -6 -6 -6 -6 -6
-6 -6 -6 -6 -6 -6 -6 -6 -6 -6 -6 -6 -6 -6 -6 -6 -7 -6 -6 -6 -6 -6 -7 -6 -6 -6 -6 -6 -6 -6 -6 -6 -6 -6 -7 -7 -6 -6 -6 -6 -6 -6 -6
-6 -6 -6 -7 -7 -6 -6 -6 -6 -6 -6 -6 -6 -6 -6 -7 -6 -6 -6 -6 -6 -6 -6 -6 -6 -6 -7 -7 -6 -6 -6 -6 -6 -6 -6 -6 -6 -6 -6 -6 -6 -6 -6
-6 -6 -6 -7 -7 -6 -6 -6 -6 -6 -6 -6 -6 -6 -6 -6 -6 -6 -6 -6 -6 -7 -6 -6 -6 -6 -6 -6 -7 -7 -7 -7 -7 -6 -6 -6 -6 -6 -6 -6 -6 -6 -6
-6 -6 -7 -7 -7 -6 -6 -6 -7 -6 -6 -6 -6 -6 -6 -6 -6 -6 -6 -7 -6 -7 -6 -6 -6 -6 -6 -7 -7 -7 -7 -7 -7 -7 -6 -6 -6 -6 -6 -6 -6 -6 -5
-6 -6 -7 -7 -7 -7 -6 -6 -6 -6 -7 -6 -6 -6 -6 -6 -6 -6 -6 -6 -7 -7 -7 -6 -6 -6 -6 -7 -6 -7 -7 -7 -7 -7 -7 -7 -7 -7 -7 -6 -6 -7 -6
-6 -6 -6 -7 -7 -7 -7 -6 -6 -6 -6 -6 -6 -6 -6 -6 -6 -6 -5 -6 -6 -6 -6 -6 -6 -6 -6 -6 -6 -6 -6 -7 -6 -6 -6 -7 -7 -7 -7 -7 -7 -6 -6
-7 -7 -6 -7 -7 -7 -7 -7 -7 -7 -7 -6 -6 -6 -6 -6 -6 -6 -6 -6 -6 -6 -6 -6 -6 -7 -7 -7 -6 -6 -6 -6 -6 -6 -7 -7 -7 -7 -7 -7 -7 -7 -7
-7 -6 -7 -7 -7 -7 -6 -6 -6 -6 -7 -7 -6 -6 -6 -7 -7 -7 -6 -6 -6 -6 -7 -6 -6 -6 -7 -6 -6 -7 -6 -6 -6 -7 -7 -7 -7 -7 -7 -7 -7 -7 -7
-8 -8 -8 -8 -7 -7 -6 -5 -6 -6 -6 -7 -7 -7 -7 -7 -6 -7 -7 -7 -7 -7 -7 -6 -6 -7 -7 -7 -7 -7 -7 -7 -7 -7 -7 -7 -7 -7 -7 -7 -7 -7 -8
-8 -7 -7 -8 -7 -7 -6 -7 -6 -6 -7 -7 -7 -7 -6 -7 -7 -7 -7 -7 -7 -7 -7 -6 -7 -7 -7 -7 -7 -7 -7 -7 -7 -7 -7 -8 -7 -7 -7 -7 -8 -8 -8
-9 -10 -9 -7 -6 -7 -6 -6 -7 -7 -6 -7 -7 -7 -7 -7 -7 -7 -7 -7 -6 -7 -6 -6 -7 -7 -7 -7 -7 -7 -7 -7 -8 -8 -8 -8 -8 -8 -8 -8 -8 -8 -8
-10 -9 -9 -8 -7 -7 -6 -7 -7 -7 -7 -7 -7 -7 -7 -7 -7 -7 -7 -7 -7 -7 -7 -7 -7 -7 -7 -8 -7 -7 -8 -8 -8 -8 -8 -8 -8 -8 -8 -8 -8 -9 -9
-10 -9 -8 -9 -8 -8 -8 -8 -8 -8 -8 -7 -8 -8 -8 -8 -8 -8 -8 -7 -7 -7 -8 -9 -9 -9 -9 -9 -9 -9 -9 -9 -10 -9 -9 -8 -8 -8 -9 -9 -10 -10 -10
-11 -10 -9 -8 -9 -10 -9 -8 -9 -8 -9 -9 -9 -9 -10 -9 -8 -8 -9 -8 -9 -10 -10 -10 -9 -10 -10 -10 -10 -10 -10 -9 -9 -9 -9 -9 -9 -9 -9 -10 -10 -10 -10
-11 -11 -10 -10 -10 -10 -10 -9 -9 -10 -9 -9 -10 -11 -11 -10 -10 -9 -9 -10 -10 -10 -10 -10 -11 -11 -10 -10 -10 -10 -10 -10 -10 -10 -9 -10 -10 -10 -10 -10 -11 -11 -11
-11 -11 -11 -11 -10 -10 -10 -11 -10 -10 -10 -11 -10 -11 -11 -11 -10 -11 -9 -10 -11 -11 -11 -11 -11 -11 -11 -11 -11 -11 -11 -11 -11 -11 -11 -11 -11 -11 -11 -11 -11 -11 -11
-11 -11 -11 -11 -11 -11 -11 -11 -11 -11 -12 -11 -11 -11 -11 -11 -11 -11 -11 -10 -11 -11 -11 -10 -11 -11 -11 -11 -11 -12 -12 -11 -12 -12 -12 -11 -12 -12 -12 -12 -13 -13 -12
-13 -12 -12 -12 -12 -12 -12 -12 -13 -12 -12 -12 -12 -12 -12 -12 -12 -11 -11 -11 -11 -11 -11 -11 -11 -11 -12 -12 -12 -12 -12 -12 -12 -12 -12 -12 -12 -12 -13 -13 -13 -13 -13
-13 -13 -13 -13 -13 -13 -13 -13 -13 -14 -13 -13 -13 -13 -13 -13 -13 -13 -13 -12 -12 -12 -12 -12 -12 -12 -12 -12 -13 -13 -13 -13 -13 -13 -13 -13 -13 -13 -14 -13 -13 -14 -14
-14 -14 -14 -14 -14 -14 -14 -14 -14 -14 -13 -14 -14 -14 -14 -14 -14 -14 -14 -13 -13 -13 -13 -13 -14 -14 -14 -13 -13 -13 -13 -13 -14 -14 -13 -14 -14 -14 -14 -15 -15 -16 -16
-14 -14 -14 -14 -14 -14 -14 -14 -14 -14 -14 -14 -14 -15 -15 -14 -14 -14 -14 -14 -14 -15 -15 -14 -14 -14 -15 -15 -14 -15 -15 -15 -15 -15 -15 -15 -16 -16 -16 -17 -17 -17 -18
-15 -15 -15 -14 -14 -15 -15 -15 -15 -15 -15 -15 -15 -16 -16 -16 -15 -16 -16 -16 -15 -15 -15 -16 -16 -16 -16 -16 -16 -17 -17 -17 -17 -17 -17 -18 -18 -18 -18 -18 -18 -18 -18
-16 -16 -16 -16 -16 -16 -16 -16 -16 -16 -16 -16 -16 -16 -16 -16 -16 -17 -17 -17 -17 -17 -17 -17 -17 -17 -17 -17 -18 -18 -18 -18 -18 -18 -18 -18 -18 -19 -19 -19 -20 -20 -20
-15 -16 -16 -16 -16 -17 -17 -17 -17 -17 -17 -17 -17 -17 -17 -17 -17 -17 -17 -17 -17 -18 -18 -18 -18 -18 -18 -18 -18 -18 -18 -18 -18 -19 -19 -20 -20 -20 -20 -20 -20 -20 -20
-15 -16 -16 -16 -17 -17 -17 -17 -17 -17 -18 -18 -18 -18 -18 -18 -18 -18 -18 -18 -18 -18 -18 -18 -18 -19 -19 -19 -19 -19 -19 -19 -20 -20 -20 -20 -20 -20 -20 -21 -21 -21 -21
Height
5915 5917 5919 5922 5924 5926 5929 5931 5933 5935 5937 5939 5939 5940 5941 5942 5944 5945 5946 5947 5948 5948 5948 5949 5949 5949 5949 5950 5949 5949 5949 5949 5950 5950 5948 5947 5947 5945 5943 5942 5941 5943 5941
5910 5914 5916 5919 5921 5923 5926 5928 5930 5932 5934 5936 5937 5938 5939 5940 5942 5943 5944 5944 5946 5946 5946 5946 5947 5947 5947 5947 5947 5947 5948 5948 5949 5948 5946 5944 5943 5942 5941 5940 5939 5940 5940
5906 5909 5912 5915 5918 5920 5922 5924 5926 5929 5931 5932 5933 5934 5936 5937 5938 5940 5941 5941 5942 5943 5943 5944 5945 5944 5944 5944 5944 5944 5944 5944 5944 5944 5942 5940 5938 5937 5936 5936 5935 5935 5935
5901 5904 5907 5910 5913 5915 5917 5920 5922 5924 5926 5927 5929 5931 5931 5932 5933 5935 5936 5937 5937 5938 5939 5940 5941 5940 5941 5940 5940 5940 5940 5939 5938 5938 5937 5935 5934 5933 5932 5932 5930 5930 5929
5894 5898 5902 5904 5906 5910 5912 5914 5916 5918 5920 5922 5922 5924 5926 5928 5930 5931 5931 5932 5932 5932 5933 5934 5935 5935 5936 5935 5935 5936 5935 5934 5933 5932 5931 5929 5928 5927 5926 5925 5924 5924 5924
5888 5891 5893 5897 5902 5904 5906 5907 5908 5911 5913 5916 5917 5918 5921 5923 5924 5925 5926 5927 5928 5928 5928 5929 5930 5930 5930 5930 5930 5931 5930 5929 5928 5927 5927 5926 5924 5923 5923 5921 5918 5915 5913
5880 5883 5886 5889 5893 5897 5898 5900 5902 5903 5905 5908 5911 5912 5914 5915 5917 5918 5919 5921 5921 5922 5922 5923 5923 5922 5923 5924 5924 5924 5924 5923 5923 5922 5920 5920 5919 5919 5919 5917 5915 5911 5908
5875 5878 5880 5883 5885 5888 5890 5892 5894 5895 5896 5899 5901 5903 5905 5907 5909 5910 5911 5913 5913 5914 5915 5916 5915 5915 5915 5916 5917 5917 5916 5916 5915 5914 5914 5913 5910 5909 5908 5907 5906 5905 5903
5868 5872 5874 5876 5877 5878 5881 5883 5885 5887 5886 5889 5890 5893 5896 5897 5899 5901 5903 5904 5905 5906 5907 5907 5906 5906 5907 5908 5908 5908 5908 5908 5907 5905 5904 5903 5903 5901 5899 5897 5896 5895 5893
5857 5861 5864 5864 5866 5866 5870 5866 5865 5874 5877 5878 5881 5881 5884 5886 5890 5891 5893 5895 5896 5897 5897 5897 5897 5897 5897 5897 5897 5898 5898 5899 5897 5896 5896 5895 5894 5892 5891 5888 5886 5885 5885
5846 5847 5852 5856 5856 5858 5859 5861 5863 5860 5865 5868 5870 5872 5873 5876 5878 5881 5883 5885 5885 5886 5887 5887 5886 5886 5886 5886 5885 5886 5886 5886 5886 5885 5885 5884 5883 5882 5879 5877 5876 5874 5872
5841 5842 5844 5845 5846 5849 5849 5849 5848 5849 5852 5856 5856 5862 5864 5865 5867 5870 5872 5873 5873 5875 5874 5873 5873 5874 5875 5874 5874 5875 5875 5875 5875 5875 5874 5873 5871 5869 5867 5865 5863 5862 5860
5834 5837 5837 5835 5837 5837 5835 5834 5836 5839 5840 5841 5846 5850 5852 5854 5855 5857 5860 5860 5861 5863 5860 5860 5861 5862 5863 5863 5863 5864 5865 5865 5865 5865 5863 5860 5859 5857 5855 5853 5852 5851 5849
5824 5826 5827 5826 5825 5825 5828 5827 5828 5828 5829 5832 5837 5838 5841 5844 5844 5845 5846 5847 5847 5848 5848 5851 5852 5851 5852 5854 5855 5853 5852 5853 5854 5853 5852 5850 5849 5846 5844 5843 5842 5841 5839
5816 5817 5817 5819 5818 5817 5820 5821 5821 5823 5824 5826 5828 5832 5834 5837 5839 5840 5839 5839 5838 5838 5839 5840 5840 5841 5840 5842 5843 5844 5844 5845 5844 5843 5841 5840 5839 5838 5835 5833 5831 5829 5828
5808 5809 5810 5810 5812 5811 5811 5813 5815 5817 5817 5820 5822 5825 5825 5828 5828 5830 5830 5831 5832 5833 5833 5833 5832 5832 5832 5832 5833 5833 5833 5831 5829 5827 5827 5826 5826 5825 5822 5820 5817 5815 5812
5797 5798 5800 5801 5802 5803 5804 5805 5806 5806 5811 5812 5814 5816 5816 5818 5819 5820 5820 5820 5820 5821 5821 5821 5821 5819 5820 5821 5821 5820 5817 5815 5815 5815 5813 5811 5810 5808 5806 5805 5802 5800 5797
5785 5787 5789 5791 5793 5793 5794 5796 5798 5799 5800 5801 5802 5803 5805 5807 5808 5808 5809 5808 5809 5809 5809 5808 5808 5807 5807 5806 5804 5803 5802 5801 5799 5799 5797 5795 5792 5789 5787 5787 5786 5784 5782
5775 5776 5777 5779 5781 5782 5783 5784 5785 5786 5788 5789 5790 5790 5791 5792 5793 5794 5795 5795 5795 5795 5795 5795 5793 5793 5792 5791 5790 5790 5787 5786 5784 5783 5781 5779 5778 5775 5773 5771 5769 5767 5764
5765 5765 5767 5768 5769 5771 5771 5772 5773 5774 5776 5776 5776 5776 5777 5778 5778 5779 5779 5779 5779 5779 5779 5779 5779 5778 5778 5777 5775 5774 5773 5771 5769 5767 5766 5763 5761 5760 5758 5754 5752 5749 5745
5756 5757 5758 5758 5758 5759 5759 5761 5762 5764 5764 5765 5765 5765 5765 5766 5765 5765 5765 5765 5764 5764 5764 5764 5763 5763 5761 5761 5761 5759 5757 5756 5754 5752 5750 5747 5744 5743 5739 5738 5735 5732 5728
5746 5747 5747 5747 5748 5748 5749 5749 5750 5750 5751 5751 5750 5750 5751 5751 5750 5750 5750 5750 5750 5749 5748 5746 5747 5746 5746 5745 5744 5742 5740 5739 5738 5736 5734 5732 5730 5728 5725 5723 5720 5717 5713
5738 5739 5739 5738 5738 5737 5737 5737 5737 5737 5736 5736 5736 5736 5736 5735 5735 5735 5734 5734 5734 5734 5734 5733 5733 5732 5732 5730 5729 5727 5727 5726 5724 5722 5720 5718 5717 5713 5710 5708 5706 5703 5700
5730 5729 5729 5729 5730 5730 5730 5729 5728 5727 5726 5725 5724 5723 5722 5721 5721 5720 5720 5720 5720 5720 5719 5719 5718 5717 5716 5715 5715 5714 5713 5712 5710 5708 5706 5705 5702 5699 5697 5694 5692 5688 5686
5722 5722 5721 5721 5720 5720 5720 5719 5719 5718 5717 5716 5716 5714 5713 5711 5709 5708 5708 5708 5707 5706 5706 5706 5705 5705 5704 5702 5700 5699 5699 5698 5696 5695 5692 5690 5689 5686 5683 5681 5678 5675 5672
5713 5713 5713 5712 5712 5711 5710 5709 5708 5706 5705 5705 5704 5702 5701 5700 5699 5698 5697 5695 5695 5694 5693 5692 5691 5690 5689 5688 5688 5687 5685 5684 5682 5682 5679 5677 5675 5673 5670 5667 5663 5660 5657
Wind_Speed
20 18 17 17 17 13 14 13 12 12 13 14 13 13 12 12 11 10 10 10 10 10 9 8 8 9 9 8 7 6 6 5 4 7 10 10 11 13 14 15 16 13 11
23 21 19 17 15 16 16 15 15 14 14 14 15 14 15 15 13 14 14 14 13 13 13 12 12 13 11 10 10 10 11 10 10 12 14 16 17 17 17 17 16 14 13
25 23 20 20 21 19 18 17 17 16 14 16 15 16 16 17 16 16 16 15 15 15 15 14 14 16 15 14 14 15 15 15 15 15 16 19 20 19 17 16 16 15 15
28 25 23 23 24 23 20 19 20 20 18 18 18 18 18 19 18 19 19 18 16 17 16 16 17 18 18 18 19 19 19 17 17 18 19 20 21 22 20 19 18 17 16
34 31 29 30 28 26 24 24 23 23 24 22 21 21 21 21 22 21 21 21 20 20 22 19 20 21 21 22 23 23 23 22 22 21 23 23 23 22 22 22 21 20 19
36 33 34 34 32 29 29 29 28 28 28 27 27 26 25 24 25 24 24 22 23 22 21 21 25 24 25 25 27 26 23 24 28 27 27 26 26 25 24 25 26 26 27
41 40 37 37 35 34 37 33 31 31 31 32 33 32 30 30 31 31 30 28 28 28 27 26 24 24 24 24 25 23 24 24 24 25 25 28 30 28 30 30 31 33 35
39 40 37 34 35 35 37 38 37 34 34 34 37 37 32 32 33 31 32 32 33 34 32 29 27 25 28 29 30 30 28 29 30 31 30 30 32 34 34 35 36 37 39
43 40 39 40 41 41 35 38 40 41 38 39 38 38 36 38 37 35 34 35 33 34 34 35 33 34 30 33 36 36 37 37 36 33 34 35 36 36 39 40 40 39 39
37 37 41 44 46 44 42 34 44 48 47 39 37 41 43 43 40 37 36 44 42 43 40 35 38 35 36 39 45 44 41 39 36 35 39 38 37 39 40 40 39 40 42
31 38 46 46 48 45 46 45 47 38 39 39 43 42 42 41 42 45 44 43 46 46 42 43 40 44 48 45 44 39 45 40 36 35 34 38 42 43 43 45 45 44 39
27 27 28 29 43 34 47 58 50 43 46 46 53 48 52 52 51 48 45 44 43 43 42 38 47 50 43 37 38 36 33 33 33 37 41 43 42 43 44 43 44 43 44
29 28 30 29 25 38 36 39 42 52 51 44 45 47 43 44 52 53 52 49 49 47 47 41 42 38 28 25 29 33 33 32 37 43 43 41 42 43 43 44 43 43 41
30 32 33 37 38 38 19 14 21 23 32 42 31 21 31 31 34 37 39 44 36 38 37 26 24 24 26 27 34 38 37 38 39 40 39 41 43 42 38 36 36 36 35
29 29 30 33 39 35 33 26 22 22 20 21 14 15 23 21 24 28 31 34 29 29 31 32 34 34 31 32 36 36 38 41 43 43 41 43 44 45 43 41 41 43 44
29 28 26 29 32 31 34 35 30 23 21 24 38 26 29 27 29 32 34 33 33 34 35 35 33 35 38 40 42 43 44 45 46 46 48 49 49 50 51 51 51 50 49
35 33 34 33 35 32 26 28 30 33 31 33 31 33 35 33 36 34 31 32 41 42 41 41 42 44 46 45 47 49 47 43 48 55 51 50 53 62 60 58 58 58 59
38 37 37 36 34 33 30 29 30 30 32 32 31 34 37 40 42 43 44 48 49 49 50 51 51 50 49 48 46 46 52 56 56 52 46 52 52 51 59 64 64 64 66
37 40 39 37 36 36 37 36 36 37 38 38 39 39 40 41 43 45 48 49 48 48 47 47 50 53 51 48 49 53 55 57 56 55 58 56 52 52 53 55 60 66 72
36 38 39 40 41 41 40 40 39 39 40 40 41 41 43 46 46 48 48 49 49 49 49 50 52 53 54 54 55 53 55 56 57 53 52 52 52 55 59 61 62 63 62
36 36 36 36 36 37 38 40 43 44 46 45 44 44 45 46 47 48 50 51 51 52 52 51 51 52 52 52 55 56 55 55 55 56 59 53 51 52 52 52 53 53 50
34 36 36 36 37 37 37 37 36 36 36 38 40 43 46 48 49 49 51 51 52 52 53 53 53 54 54 53 54 51 48 51 52 52 52 50 49 49 48 47 48 50 52
23 23 25 28 31 32 33 34 36 37 38 39 40 41 43 44 46 48 49 50 51 53 52 50 50 48 48 47 47 48 47 46 46 46 46 47 48 48 48 49 50 52 53
23 23 22 23 23 24 25 26 27 29 30 32 34 36 40 44 46 47 47 48 48 49 50 50 50 50 50 50 50 50 49 48 46 46 46 47 47 47 47 48 50 50 50
27 29 29 29 29 29 29 30 30 31 32 33 34 35 36 37 38 39 40 41 43 45 47 48 48 49 48 47 46 47 47 47 46 45 44 44 44 45 45 45 46 48 49
24 25 27 28 29 31 32 33 33 34 35 35 36 37 36 36 37 40 42 42 42 42 42 43 43 43 43 44 44 44 43 42 42 41 41 40 41 43 44 45 46 45 46
Wind_Direction
208 207 211 212 207 211 215 217 217 218 214 217 219 222 222 221 221 218 211 212 218 222 229 242 247 248 249 256 272 298 309 311 309 294 294 297 299 300 309 311 315 321 322
212 214 213 215 222 225 215 219 226 223 229 231 220 224 228 227 226 227 226 229 228 235 237 246 254 261 264 269 277 279 280 286 284 283 287 289 294 297 302 304 306 312 316
214 219 217 216 218 225 228 224 226 224 225 227 238 230 230 235 234 232 228 230 236 242 249 257 261 264 268 269 272 272 277 279 280 281 281 283 287 290 292 295 298 305 308
216 216 224 224 224 225 229 234 233 238 237 240 244 243 237 234 233 238 238 237 235 242 246 250 255 260 264 269 271 269 268 267 271 273 277 278 281 287 291 292 293 297 298
217 215 223 230 233 233 231 231 234 237 243 246 243 247 250 246 243 244 248 251 247 243 247 252 260 264 269 269 269 269 269 268 266 266 266 267 269 272 278 284 288 290 289
225 223 225 230 235 236 240 238 237 240 241 243 247 248 250 253 253 251 247 252 258 258 263 268 263 267 267 270 260 264 269 273 266 264 267 270 273 278 283 284 285 287 287
224 224 229 231 237 246 248 246 251 245 246 248 247 249 254 255 256 257 257 252 251 258 258 261 269 269 260 261 258 259 264 272 264 278 276 274 276 277 280 285 286 288 290
228 231 229 237 239 244 246 251 253 252 251 251 252 252 249 253 256 255 254 260 258 255 256 257 255 258 258 256 257 260 264 266 269 269 272 275 270 271 271 275 280 284 284
234 237 240 248 246 250 247 257 252 257 255 251 249 249 250 253 255 257 262 256 257 253 256 266 260 257 251 261 256 254 260 264 266 267 266 272 275 275 275 274 277 278 278
230 238 241 243 245 247 245 260 247 248 251 250 251 253 251 251 251 254 259 260 262 260 267 257 266 260 254 277 268 257 263 261 268 265 266 267 273 275 280 277 276 279 281
247 237 242 250 249 246 241 257 251 255 242 256 258 257 259 251 250 257 262 258 260 259 259 261 265 264 271 267 264 263 262 253 259 270 268 274 278 281 281 277 278 281 277
265 281 275 277 257 261 260 258 241 244 247 243 252 256 257 259 254 259 262 263 259 257 258 255 258 262 261 256 257 250 258 255 259 264 275 274 276 281 282 281 278 272 273
269 273 276 256 229 243 241 253 245 249 248 242 251 260 253 255 255 255 261 258 253 242 247 249 254 254 241 255 258 260 258 263 265 272 280 281 283 282 280 279 276 273 271
269 270 269 271 274 248 258 270 280 248 246 247 244 254 248 257 257 254 253 244 240 239 246 263 267 270 274 268 269 278 282 284 284 283 283 286 286 282 281 279 274 271 270
268 268 270 267 274 272 283 271 256 234 291 232 268 277 296 292 288 276 275 279 279 280 281 278 272 277 276 276 277 275 273 274 275 277 282 284 284 282 278 274 271 273 273
260 261 267 269 275 279 273 263 259 286 237 260 290 275 275 276 256 254 254 254 259 259 261 266 269 272 275 276 275 277 279 279 277 273 277 279 278 279 278 275 272 270 268
264 263 266 268 269 270 266 268 270 269 256 260 264 258 256 247 250 255 264 258 264 267 267 268 270 273 273 269 272 275 272 274 277 273 275 278 276 279 275 274 273 274 274
252 255 259 262 261 261 260 258 253 253 254 254 256 261 260 259 257 260 258 263 267 266 268 270 270 270 271 272 267 266 267 271 278 279 284 278 287 286 280 277 275 277 281
250 251 256 255 256 258 257 251 251 254 251 253 253 254 256 257 258 259 261 261 263 265 268 266 267 271 275 270 272 272 276 276 279 280 279 285 282 284 288 288 287 286 285
262 262 260 260 262 263 264 262 261 259 256 253 253 254 255 257 259 261 262 263 265 266 266 266 266 270 271 271 273 276 275 277 280 281 281 278 277 276 278 279 279 281 284
265 265 264 265 266 265 265 265 265 265 265 266 265 265 265 265 264 264 262 263 263 264 266 268 269 270 271 272 273 274 275 276 277 279 282 280 277 276 278 281 281 282 283
262 265 268 269 270 270 270 270 269 268 268 268 267 267 266 266 266 267 267 267 268 268 269 270 270 271 273 274 274 275 278 279 280 280 281 279 278 276 276 280 284 285 288
267 269 269 268 270 273 274 275 275 274 273 272 271 270 270 270 270 271 271 271 272 272 272 271 271 272 273 273 275 277 278 278 277 277 276 275 276 281 285 286 288 290 291
269 271 274 276 278 279 279 279 279 280 279 278 278 277 275 274 274 274 273 271 271 271 271 270 270 271 272 274 276 279 279 279 280 281 280 281 284 286 288 290 290 291 290
270 274 275 275 276 278 280 282 283 279 278 278 276 277 278 278 276 274 275 275 275 274 273 274 274 274 275 276 277 278 279 279 279 281 284 285 286 287 288 288 290 291 293
273 270 270 270 270 271 272 274 275 274 275 276 276 275 274 273 270 270 274 275 275 275 276 277 277 277 277 278 279 279 280 281 282 283 284 286 287 289 290 292 293 295 296